Ardabil, Iran

2:45 PM +0330 on October 21, 2019 (GMT +0330)
Ardabil

Weather History for OITL - August, 2019

Change the Weather History Date:

Friday, August 9, 2019

  Actual Average Record
Temperature  
Mean Temperature 62 °F -  
Max Temperature 69 °F - - ()
Min Temperature 55 °F - - ()
Degree Days  
Heating Degree Days 3    
Growing Degree Days 12 (Base 50)    
Moisture  
Dew Point 53 °F    
Average Humidity 71    
Maximum Humidity 94    
Minimum Humidity 53    
Precipitation  
Precipitation 0.00 in - - ()
Sea Level Pressure  
Sea Level Pressure 30.05 in    
Wind  
Wind Speed 13 mph ()    
Max Wind Speed 26 mph    
Max Gust Speed -    
Visibility 5.9 miles    
Events Rain    
T = Trace of Precipitation, MM = Missing Value Source: Averaged Metar Reports

Daily Weather History Graph

Daily Weather History Graph

Search for Another Location

Airport or City:

Astronomy

Aug. 09, 2019 Rise Set
Actual Time 6:25 AM +0430 8:18 PM +0430
Civil Twilight 5:56 AM +0430 8:46 PM +0430
Nautical Twilight 5:21 AM +0430 9:21 PM +0430
Astronomical Twilight 4:43 AM +0430 9:58 PM +0430
Moon 3:33 PM +0430 (8/9) 1:08 AM +0430 (8/9)
Length of Visible Light 14h 50m
Length of Day
13h 53m
Waxing Gibbous, 67% of the Moon is Illuminated
Aug 9
Waxing Gibbous
Aug 15
Full
Aug 23
Last Quarter
Aug 30
New
Sep 6
First Quarter

Hourly Weather History & Observations

Time (+0430) Temp. Dew Point Humidity Pressure Visibility Wind Dir Wind Speed Gust Speed Precip Events Conditions
12:22 AM 59.0 °F 57.2 °F 94% 30.12 in 4.3 mi East 6.9 mph - N/A   Light Drizzle
1:24 AM 57.2 °F 53.6 °F 88% 30.09 in 6.2 mi East 6.9 mph - N/A   Mostly Cloudy
2:21 AM 57.2 °F 53.6 °F 88% 30.09 in 6.2 mi ENE 11.5 mph - N/A   Mostly Cloudy
3:20 AM 59.0 °F 53.6 °F 82% 30.09 in 6.2 mi East 4.6 mph - N/A   Mostly Cloudy
4:22 AM 59.0 °F 50.0 °F 72% 30.09 in 6.2 mi NW 9.2 mph - N/A   Mostly Cloudy
5:22 AM 55.4 °F 53.6 °F 94% 30.09 in 3.1 mi WNW 13.8 mph - N/A   Drizzle
6:23 AM 55.4 °F 53.6 °F 94% 30.09 in 2.5 mi NW 11.5 mph - N/A   Drizzle
7:23 AM 57.2 °F 55.4 °F 94% 30.09 in 5.0 mi ENE 9.2 mph - N/A   Mostly Cloudy
7:30 AM 57.2 °F 55.4 °F 94% 30.09 in 5.0 mi ENE 9.2 mph - N/A   Mostly Cloudy
8:23 AM 57.2 °F 53.6 °F 88% 30.09 in 6.2 mi ENE 11.5 mph - N/A   Mostly Cloudy
8:30 AM 57.2 °F 53.6 °F 88% 30.09 in 6.2 mi ENE 11.5 mph - N/A   Mostly Cloudy
9:21 AM 57.2 °F 51.8 °F 82% 30.09 in 6.2 mi ENE 9.2 mph - N/A Rain Light Rain Showers
10:00 AM 57.2 °F 51.8 °F 82% 30.09 in 6.2 mi ENE 18.4 mph - N/A   Scattered Clouds
10:23 AM 60.8 °F 51.8 °F 72% 30.09 in 6.2 mi ENE 13.8 mph - N/A   Partly Cloudy
10:30 AM 60.8 °F 51.8 °F 72% 30.09 in 6.2 mi ENE 13.8 mph - N/A   Partly Cloudy
11:25 AM 62.6 °F 50.0 °F 63% 30.09 in 6.2 mi ENE 16.1 mph - N/A   Partly Cloudy
12:00 PM 64.4 °F 51.8 °F 64% 30.09 in 6.2 mi ENE 16.1 mph - N/A   Partly Cloudy
12:21 PM 66.2 °F 51.8 °F 60% 30.09 in 6.2 mi East 16.1 mph - N/A   Mostly Cloudy
12:30 PM 66.2 °F 51.8 °F 60% 30.09 in 6.2 mi East 16.1 mph - N/A   Mostly Cloudy
1:00 PM 68.0 °F 51.8 °F 56% 30.06 in 6.2 mi ENE 16.1 mph - N/A   Mostly Cloudy
1:21 PM 66.2 °F 51.8 °F 60% 30.06 in 6.2 mi ENE 19.6 mph - N/A   Scattered Clouds
1:30 PM 66.2 °F 51.8 °F 60% 30.06 in 6.2 mi ENE 19.6 mph - N/A   Scattered Clouds
2:20 PM 69.8 °F 51.8 °F 53% 30.04 in 6.2 mi NE 24.2 mph - N/A   Partly Cloudy
2:30 PM 69.8 °F 51.8 °F 53% 30.04 in 6.2 mi NE 24.2 mph - N/A   Partly Cloudy
3:21 PM 69.8 °F 51.8 °F 53% 30.01 in 6.2 mi East 24.2 mph - N/A   Partly Cloudy
3:30 PM 69.8 °F 51.8 °F 53% 30.01 in 6.2 mi East 24.2 mph - N/A   Partly Cloudy
4:00 PM 68.0 °F 53.6 °F 60% 30.01 in 6.2 mi ENE 24.2 mph - N/A   Partly Cloudy
4:20 PM 68.0 °F 53.6 °F 60% 29.98 in 6.2 mi ENE 24.2 mph - N/A   Partly Cloudy
4:30 PM 68.0 °F 53.6 °F 60% 29.98 in 6.2 mi ENE 24.2 mph - N/A   Partly Cloudy
5:00 PM 68.0 °F 53.6 °F 60% 30.01 in 6.2 mi ENE 21.9 mph - N/A   Partly Cloudy
5:21 PM 68.0 °F 53.6 °F 60% 30.01 in 6.2 mi ENE 26.5 mph - N/A   Partly Cloudy
5:30 PM 68.0 °F 53.6 °F 60% 30.01 in 6.2 mi ENE 26.5 mph - N/A   Partly Cloudy
6:00 PM 66.2 °F 53.6 °F 64% 29.98 in 6.2 mi NE 26.5 mph - N/A   Partly Cloudy
6:21 PM 66.2 °F 53.6 °F 64% 30.01 in 6.2 mi ENE 21.9 mph - N/A   Partly Cloudy
7:25 PM 64.4 °F 53.6 °F 68% 30.01 in 6.2 mi NE 16.1 mph - N/A   Partly Cloudy
7:30 PM 64.4 °F 53.6 °F 68% 30.01 in 6.2 mi NE 16.1 mph - N/A   Partly Cloudy
8:21 PM 60.8 °F 51.8 °F 72% 30.01 in 6.2 mi ENE 11.5 mph - N/A   Partly Cloudy
9:21 PM 60.8 °F 51.8 °F 72% 30.01 in 6.2 mi East 9.2 mph - N/A   Scattered Clouds
10:21 PM 60.8 °F 51.8 °F 72% 30.04 in 6.2 mi NNE 4.6 mph - N/A   Scattered Clouds
11:21 PM 62.6 °F 50.0 °F 63% 30.01 in 6.2 mi WNW 6.9 mph - N/A   Scattered Clouds